Showing default

OPS 9845 (DMSP 5D-2 F6), 13736

Orbit data source: Space-Track

OPS 9845 (DMSP 5D-2 F6), 13736 is a payload satellite owned by USAF SD (US) in SSO that was launched on Tue, 21 Dec 1982 UTC via an ATLAS E launch vehicle from the Air Force Western Test Range (AFWTR). Payloads include a variety of satellites, spacecraft, and rockets equipped with specific instruments for various scientific and technological missions. These include communications satellites like Starlink; space stations such as the ISS; scientific satellites like the Hubble; Earth observation satellites from companies like Planet Labs, Umbra, and HawkEye 360; GPS; miniature CubeSats for education and research; and military/defense satellites.

Loading next visibility...
OPS 9845 (DMSP 5D-2 F6) details
Identifier
13736, 1982-118A
Orbit
SSO
Last TLE update20 hours ago
Origin
Flag of USUSAF SD (US)
ManufacturerRCA/East Windsor
MissionNon-operational Defense Weather
Bus & MotorBLOCK 5D, STAR 37S
Mass1,474 kg wet, 760 kg dry
Launch date (UTC)
1982-12-21 (42 years ago)
Launch vehicle
ATLAS E
Launch site
Air Force Western Test Range (AFWTR)
Object type
Payload
Rocket body
Debris
Shape & HBRCyl + 1 Pan, 6.9 m
Radar Cross Section9.012 m², Large (>1 m²)

Expand to show TLE details & history

TLE from 20 hours ago
0 OPS 9845 (DMSP 5D-2 F6)
1 13736U 82118A   24360.58762157  .00000649  00000-0  26769-3 0  9998
2 13736  98.5878 183.8379 0008448 106.7216 253.4894 14.30157994188019
Epoch: 2024-12-25T14:06Z
Definitive object data (Epoch: 2024-12-25T14:06:10.503Z)
Latitude-0.00005°
Longitude-122.28508°
Altitude795.861 km
Speed7.455 km/s
True Right ascension12h 15m 21s
True Declination0° 00' 00"
Sunlit
Object was in daylight at TLE epoch
Visualization TLE readout
Latitude-47.61098°
Longitude-111.99359°
Altitude814.97 km
Speed7.442 km/s
Apparent Right ascension17h 11m 33s
Apparent Declination-64° 53' 21"
Sunlit
Object is in daylight
Visualization observer readout
Local Sidereal Time09:22:44
Azimuth146.49° SSE
Elevation-46.872°
Doppler factor1
Orbital elements
Apogee altitude794.396 km
Perigee altitude782.288 km
Semi-major axis7,166.479 km
Eccentricity0.0008448
Inclination98.5878°
RAAN183.8379°
Arg. of periapsis106.7216°
True anomaly253.39661°
Mean anomaly253.4894°
Eccentric anomaly253.443°
Mean motion3.57754 °/min
BSTAR0.00026769
Orbital period100.63 mins
Loading maneuver chart data...
Loading historical data...
Loading historical data...
Loading historical data...
Loading historical data...
Loading historical data...
Loading historical data...
Loading historical data...

OPS 9845 (DMSP 5D-2 F6) Visibility forecast

Observer location: undefined°, undefined

Span
Click to sort rows by Start time (UTC) header in descending order
Start Az.
Max El. time (UTC)
Max El. Az.
Max El.
End time (UTC)
End Az.
9 mins2024-12-26 12:02:37.451Z149.472° SSE2024-12-26 12:07:37.451Z64.16° ENE40.036°2024-12-26 12:11:37.451Z357.483° N
4 mins2024-12-26 13:45:37.451Z245.763° WSW2024-12-26 13:47:37.451Z272.57° WNW15.607°2024-12-26 13:49:37.451Z297.84° NW
5 mins2024-12-27 00:18:37.451Z63.549° ENE2024-12-27 00:20:37.451Z93.937° ESE20.178°2024-12-27 00:23:37.451Z135.534° SSE
8 mins2024-12-27 01:56:37.451Z354.111° N2024-12-27 02:00:37.451Z278.446° WNW34.203°2024-12-27 02:04:37.451Z221.477° SW
|